661  
NZUS99 KSGF 211607  
HRRSGF  
 
HOURLY WEATHER  
NATIONAL WEATHER SERVICE SPRINGFIELD MO  
1000 AM CST MON JAN 21 2019  
   
.....SGF CWA...
 
 
 
CITY SKY/WX TMP DP RH WIND PRES REMARKS  
SPRINGFIELD CLOUDY 23 14 68 SE17G32 30.21F WCI 9  
JOPLIN CLOUDY 29 20 69 SE14G30 30.16S WCI 18  
WEST PLAINS CLOUDY 19 16 88 SE13G22 30.37R WCI 6  
ROLLA CLOUDY 20 13 74 SE14G24 30.34F WCI 7  
OSAGE BEACH CLOUDY 23 15 71 SE10G21 30.33S WCI 12  
BRANSON CLOUDY 25 18 74 SE18G24 30.28F WCI 11  
   
.....SURROUNDING SGF CWA...
 
 
 
CITY SKY/WX TMP DP RH WIND PRES REMARKS  
CHANUTE CLOUDY 30 23 75 SE20G29 30.08F WCI 17  
PARSONS CLOUDY 33 24 69 VRB7G18 30.10F WCI 27  
COFFEYVILLE MOSUNNY 35 25 66 SE16G25 30.08F WCI 25  
EMPORIA CLOUDY 27 23 85 SE16G26 30.02F WCI 15  
GROVE OK MOSUNNY 36 27 69 SE10G16 30.15F WCI 28  
ROGERS AR MOSUNNY 33 21 61 E15 30.18S WCI 23  
SILOAM SPRINGS CLOUDY 35 24 64 SE10G21 30.16F WCI 27  
HARRISON AR MOSUNNY 25 18 74 SE18G25 30.27S WCI 11  
NEAR YELLVILLE CLOUDY 23 19 85 E10 30.38S WCI 12  
   
.....KANSAS AND MISSOURI...
 
 
 
CITY SKY/WX TMP DP RH WIND PRES REMARKS  
KANSAS CTY INT CLOUDY 19 16 88 SE17 30.15F WCI 4  
DOWNTOWN KC CLOUDY 23 15 71 E12G22 30.19F WCI 12  
COLUMBIA CLOUDY 17 11 77 SE14 30.34F WCI 3  
SEDALIA MOSUNNY 21 16 81 SE17G28 30.27F WCI 7  
ST JOSEPH CLOUDY 17 14 88 SE17G28 30.17F WCI 1  
ST LOUIS CLOUDY 18 11 74 SE15 30.48F WCI 4  
SPIRIT OF STL CLOUDY 18 12 77 SE8 30.47F WCI 8  
KIRKSVILLE CLOUDY 9 5 84 SE14 30.34F WCI -7  
WICHITA CLOUDY 34 27 75 SE22G30 29.93F WCI 22  
TOPEKA CLOUDY 24 17 74 E18 30.10F WCI 10  
OLATHE CLOUDY 21 17 84 SE16G26 30.14F WCI 7  
   
.....TENNESSEE...
 
 
 
CITY SKY/WX TMP DP RH WIND PRES REMARKS  
MEMPHIS FAIR 30 19 63 E10 30.46R WCI 21  
NASHVILLE FAIR 24 7 48 E10 30.56R WCI 14  
   
.....ARKANSAS....
 
 
 
CITY SKY/WX TMP DP RH WIND PRES REMARKS  
FAYETTEVILLE CLOUDY 35 23 61 S13G22 30.18F WCI 26  
FT SMITH CLOUDY 32 24 72 E14 30.27S WCI 22  
LITTLE ROCK CLOUDY 32 23 69 E14 30.42R WCI 22  
   
.....OKLAHOMA....
 
 
 
CITY SKY/WX TMP DP RH WIND PRES REMARKS  
TULSA CLOUDY 37 25 61 SE18G29 30.08F WCI 27  
PONCA CITY CLOUDY 40 26 57 S22G32 29.95F WCI 30  
MCALESTER CLOUDY 42 27 55 S10G24 30.14S  
OKLAHOMA CITY MOSUNNY 40 28 62 S24G36 29.96F WCI 29  
   
.....IOWA.........
 
 
 
CITY SKY/WX TMP DP RH WIND PRES REMARKS  
DES MOINES CLOUDY 9 -1 64 SE13 30.28F WCI -7  
QUAD CITIES FAIR 9 1 70 SE14 30.47F WCI -7  
   
.....ILLINOIS.....
 
 
 
CITY SKY/WX TMP DP RH WIND PRES REMARKS  
QUINCY CLOUDY 11 3 70 SE12 30.43R WCI -3  
CHICAGO PTSUNNY 12 5 73 SE8 30.55S WCI 0  
 
 
 
CLICK HERE TO GO TO PREVIOUS BULLETINS.

The Nexlab MO Page
The Nexlab KS Page Main Text Page